Glendale Luke AFB, AZ

5:39 AM MST on June 23, 2018 (GMT -0700)
Luke Air Force Base

Weather History for KLUF - June, 2010

Change the Weather History Date:

Friday, June 11, 2010

  Actual Average Record
Temperature  
Mean Temperature 84 °F -  
Max Temperature 93 °F 102 °F 115 °F (1956)
Min Temperature 75 °F 64 °F 54 °F (1927)
Cooling Degree Days 20    
Growing Degree Days 34 (Base 50)    
Moisture  
Dew Point 45 °F    
Average Humidity 27    
Maximum Humidity 38    
Minimum Humidity 12    
Precipitation  
Precipitation 0.00 in - - ()
Sea Level Pressure  
Sea Level Pressure 29.60 in    
Wind  
Wind Speed 11 mph (WSW)    
Max Wind Speed 24 mph    
Max Gust Speed 29 mph    
Visibility 10 miles    
Events      
Averages and records for this station are not official NWS values.
T = Trace of Precipitation, MM = Missing Value Source: NWS Daily Summary

Daily Weather History Graph

Daily Weather History Graph

Search for Another Location

Airport or City:

Astronomy

Jun. 11, 2010 Rise Set
Actual Time 5:18 AM MST 7:39 PM MST
Civil Twilight 4:50 AM MST 8:08 PM MST
Nautical Twilight 4:14 AM MST 8:43 PM MST
Astronomical Twilight 3:36 AM MST 9:22 PM MST
Moon 4:21 AM MST (6/11) 7:18 PM MST (6/11)
Length of Visible Light 15h 18m
Length of Day
14h 20m
Waning Crescent, 1% of the Moon is Illuminated
Jun 11
Waning Crescent
Jun 12
New
Jun 18
First Quarter
Jun 26
Full
Jul 4
Last Quarter

Hourly Weather History & Observations

Time (MST) Temp. Dew Point Humidity Pressure Visibility Wind Dir Wind Speed Gust Speed Precip Events Conditions
12:55 AM 82.6 °F 46.9 °F 29% 29.57 in 10.0 mi SW 10.4 mph - N/A   Clear
1:55 AM 82.0 °F 46.4 °F 29% 29.57 in 10.0 mi WSW 10.4 mph - N/A   Clear
2:55 AM 79.0 °F 47.5 °F 33% 29.57 in 10.0 mi WSW 10.4 mph - N/A   Clear
3:55 AM 78.8 °F 47.8 °F 34% 29.57 in 10.0 mi West 12.7 mph - N/A   Clear
4:55 AM 76.8 °F 49.1 °F 38% 29.59 in 10.0 mi WSW 6.9 mph - N/A   Clear
5:55 AM 77.7 °F 50.0 °F 38% 29.60 in 10.0 mi West 3.5 mph - N/A   Clear
6:55 AM 79.0 °F 50.4 °F 37% 29.62 in 10.0 mi Calm Calm - N/A   Clear
7:55 AM 81.1 °F 50.9 °F 35% 29.64 in 10.0 mi Variable 6.9 mph - N/A   Clear
8:55 AM 82.8 °F 51.1 °F 33% 29.64 in 10.0 mi SW 9.2 mph - N/A   Clear
9:55 AM 82.8 °F 51.3 °F 33% 29.65 in 10.0 mi West 10.4 mph - N/A   Partly Cloudy
10:55 AM 84.0 °F 51.6 °F 33% 29.65 in 10.0 mi SW 12.7 mph 20.7 mph N/A   Scattered Clouds
11:55 AM 84.9 °F 50.7 °F 31% 29.64 in 10.0 mi WSW 16.1 mph 21.9 mph N/A   Mostly Cloudy
12:55 PM 87.1 °F 52.9 °F 31% 29.62 in 10.0 mi SW 13.8 mph 19.6 mph N/A   Mostly Cloudy
1:55 PM 88.9 °F 51.1 °F 27% 29.60 in 10.0 mi WSW 16.1 mph 24.2 mph N/A   Scattered Clouds
2:55 PM 93.4 °F 49.3 °F 22% 29.58 in 10.0 mi West 24.2 mph 28.8 mph N/A   Partly Cloudy
3:55 PM 92.3 °F 41.7 °F 17% 29.57 in 10.0 mi SW 18.4 mph 26.5 mph N/A   Scattered Clouds
4:55 PM 92.1 °F 37.4 °F 15% 29.55 in 10.0 mi SW 16.1 mph - N/A   Partly Cloudy
5:55 PM 91.0 °F 34.3 °F 13% 29.54 in 10.0 mi WSW 20.7 mph - N/A   Clear
6:55 PM 88.9 °F 32.7 °F 13% 29.54 in 10.0 mi SSW 17.3 mph 25.3 mph N/A   Clear
7:55 PM 85.5 °F 27.9 °F 12% 29.55 in 10.0 mi SSW 13.8 mph - N/A   Clear
8:55 PM 81.5 °F 34.0 °F 18% 29.58 in 10.0 mi SW 11.5 mph - N/A   Clear
9:55 PM 79.0 °F 40.6 °F 25% 29.61 in 10.0 mi SW 9.2 mph - N/A   Clear
10:55 PM 76.8 °F 41.9 °F 29% 29.62 in 10.0 mi SW 13.8 mph - N/A   Clear
11:55 PM 75.2 °F 36.5 °F 25% 29.62 in 10.0 mi SW 12.7 mph - N/A   Clear